Voltar ao catálogo

SL-14 DEB

AtivoPO
NORAD 17844·DEBRIS·🇷🇺 Russia

Lançado Dec 18, 1986 de Plesetsk Cosmodrome

Loading…

Próximas Passagens (próximas 24 horas)

TLE

AtualizadoSource: Space-Track

Época: Sep 13, 2026, 07:43 UTC

1 17844U 86101K   26256.32193002  .00000689  00000-0  37334-3 0  9997
2 17844  82.5083 214.2739 0018146   4.4842 148.7012 14.11167881 30590

Acompanhe SL-14 DEB em tempo real com AllMySat

Download on the App Store